Time,TemperatureF,DewpointF,PressureIn,WindDirection,WindDirectionDegrees,WindSpeedMPH,WindSpeedGustMPH,Humidity,HourlyPrecipIn,Conditions,Clouds,dailyrainin,SoftwareType,DateUTC
2013-03-22 00:13:00,25.0,13.8,29.77,NNW,337,3.7,-999.0,62,-99.99,,,0.00,Acu-Link.com,2013-03-22 04:13:00,
2013-03-22 00:28:00,24.8,14.0,29.77,NE,45,3.2,-999.0,63,-99.99,,,0.00,Acu-Link.com,2013-03-22 04:28:00,
2013-03-22 00:44:00,24.6,13.8,29.78,NNE,22,2.7,-999.0,63,-99.99,,,0.00,Acu-Link.com,2013-03-22 04:44:00,
2013-03-22 00:59:00,23.9,13.5,29.76,NNW,337,2.2,-999.0,64,-99.99,,,0.00,Acu-Link.com,2013-03-22 04:59:00,
2013-03-22 01:14:00,24.4,13.6,29.76,NNE,22,3.2,-999.0,63,-99.99,,,0.00,Acu-Link.com,2013-03-22 05:14:00,
2013-03-22 01:29:00,24.3,13.5,29.77,NNW,337,2.7,-999.0,63,-99.99,,,0.00,Acu-Link.com,2013-03-22 05:29:00,
2013-03-22 01:44:00,24.4,13.6,29.76,NW,315,4.2,-999.0,63,-99.99,,,0.00,Acu-Link.com,2013-03-22 05:44:00,
2013-03-22 02:00:00,25.0,14.2,29.76,NNW,337,6.3,-999.0,63,-99.99,,,0.00,Acu-Link.com,2013-03-22 06:00:00,
2013-03-22 02:15:00,25.3,14.1,29.76,NW,315,8.3,-999.0,62,-99.99,,,0.00,Acu-Link.com,2013-03-22 06:15:00,
2013-03-22 02:30:00,25.3,14.5,29.76,NNW,337,5.3,-999.0,63,-99.99,,,0.00,Acu-Link.com,2013-03-22 06:30:00,
2013-03-22 02:45:00,25.5,14.7,29.76,WNW,292,7.8,-999.0,63,-99.99,,,0.00,Acu-Link.com,2013-03-22 06:45:00,
2013-03-22 03:00:00,25.5,14.7,29.76,NW,315,3.7,-999.0,63,-99.99,,,0.00,Acu-Link.com,2013-03-22 07:00:00,
2013-03-22 03:16:00,25.5,15.0,29.75,ENE,67,3.2,-999.0,64,-99.99,,,0.00,Acu-Link.com,2013-03-22 07:16:00,
2013-03-22 03:46:00,25.2,15.1,29.76,NNW,337,4.2,-999.0,65,-99.99,,,0.00,Acu-Link.com,2013-03-22 07:46:00,
2013-03-22 04:02:00,25.2,15.1,29.75,NNW,337,3.2,-999.0,65,-99.99,,,0.00,Acu-Link.com,2013-03-22 08:02:00,
2013-03-22 04:17:00,25.7,14.9,29.76,NW,315,3.7,-999.0,63,-99.99,,,0.00,Acu-Link.com,2013-03-22 08:17:00,
2013-03-22 04:32:00,25.5,15.0,29.75,ENE,67,2.7,-999.0,64,-99.99,,,0.00,Acu-Link.com,2013-03-22 08:32:00,
2013-03-22 04:47:00,25.9,15.4,29.75,South,180,2.7,-999.0,64,-99.99,,,0.00,Acu-Link.com,2013-03-22 08:47:00,
2013-03-22 05:02:00,26.6,15.7,29.76,NNE,22,3.2,-999.0,63,-99.99,,,0.00,Acu-Link.com,2013-03-22 09:02:00,
2013-03-22 05:17:00,27.0,16.1,29.75,NNE,22,1.1,-999.0,63,-99.99,,,0.00,Acu-Link.com,2013-03-22 09:17:00,
2013-03-22 05:33:00,27.1,15.8,29.75,SE,135,3.2,-999.0,62,-99.99,,,0.00,Acu-Link.com,2013-03-22 09:33:00,
2013-03-22 05:48:00,27.5,16.2,29.75,SSW,202,3.7,-999.0,62,-99.99,,,0.00,Acu-Link.com,2013-03-22 09:48:00,
2013-03-22 06:03:00,27.5,16.2,29.76,SW,225,3.7,-999.0,62,-99.99,,,0.00,Acu-Link.com,2013-03-22 10:03:00,
2013-03-22 06:18:00,27.5,16.2,29.76,SW,225,2.7,-999.0,62,-99.99,,,0.00,Acu-Link.com,2013-03-22 10:18:00,
2013-03-22 06:33:00,27.5,16.6,29.76,West,270,2.2,-999.0,63,-99.99,,,0.00,Acu-Link.com,2013-03-22 10:33:00,
2013-03-22 06:49:00,27.3,16.4,29.77,North,0,2.2,-999.0,63,-99.99,,,0.00,Acu-Link.com,2013-03-22 10:49:00,
2013-03-22 07:04:00,27.7,16.8,29.79,NNE,22,2.2,-999.0,63,-99.99,,,0.00,Acu-Link.com,2013-03-22 11:04:00,
2013-03-22 07:19:00,27.9,17.0,29.79,West,270,4.7,-999.0,63,-99.99,,,0.00,Acu-Link.com,2013-03-22 11:19:00,
2013-03-22 07:34:00,28.0,17.1,29.79,North,0,3.7,-999.0,63,-99.99,,,0.00,Acu-Link.com,2013-03-22 11:34:00,
2013-03-22 07:49:00,28.4,17.1,29.79,East,90,4.7,-999.0,62,-99.99,,,0.00,Acu-Link.com,2013-03-22 11:49:00,
2013-03-22 08:05:00,28.8,17.1,29.80,ENE,67,5.8,-999.0,61,-99.99,,,0.00,Acu-Link.com,2013-03-22 12:05:00,
2013-03-22 08:20:00,28.8,17.1,29.81,NNW,337,6.3,-999.0,61,-99.99,,,0.00,Acu-Link.com,2013-03-22 12:20:00,
2013-03-22 08:35:00,29.7,17.5,29.81,NNE,22,6.3,-999.0,60,-99.99,,,0.00,Acu-Link.com,2013-03-22 12:35:00,
2013-03-22 08:51:00,29.7,17.5,29.82,NNE,22,6.8,-999.0,60,-99.99,,,0.00,Acu-Link.com,2013-03-22 12:51:00,
2013-03-22 09:21:00,29.8,17.6,29.82,NNW,337,8.9,-999.0,60,-99.99,,,0.00,Acu-Link.com,2013-03-22 13:21:00,
2013-03-22 09:36:00,30.4,18.2,29.82,SE,135,5.3,-999.0,60,-99.99,,,0.00,Acu-Link.com,2013-03-22 13:36:00,
2013-03-22 09:51:00,30.6,18.0,29.83,NNE,22,7.8,-999.0,59,-99.99,,,0.00,Acu-Link.com,2013-03-22 13:51:00,
2013-03-22 10:07:00,31.3,17.9,29.83,SSE,157,15.5,-999.0,57,-99.99,,,0.00,Acu-Link.com,2013-03-22 14:07:00,
2013-03-22 10:22:00,31.5,18.0,29.84,NNW,337,9.9,-999.0,57,-99.99,,,0.00,Acu-Link.com,2013-03-22 14:22:00,
2013-03-22 10:37:00,31.3,17.9,29.84,WNW,292,6.3,-999.0,57,-99.99,,,0.00,Acu-Link.com,2013-03-22 14:37:00,
2013-03-22 10:52:00,31.5,17.6,29.83,NW,315,6.8,-999.0,56,-99.99,,,0.00,Acu-Link.com,2013-03-22 14:52:00,
2013-03-22 11:07:00,32.9,18.1,29.83,NW,315,14.5,-999.0,54,-99.99,,,0.00,Acu-Link.com,2013-03-22 15:07:00,
2013-03-22 11:23:00,34.7,18.9,29.82,NNW,337,11.9,-999.0,52,-99.99,,,0.00,Acu-Link.com,2013-03-22 15:23:00,
2013-03-22 11:38:00,34.0,18.2,29.83,NW,315,7.3,-999.0,52,-99.99,,,0.00,Acu-Link.com,2013-03-22 15:38:00,
2013-03-22 11:53:00,34.0,18.7,29.82,NNE,22,5.8,-999.0,53,-99.99,,,0.00,Acu-Link.com,2013-03-22 15:53:00,
2013-03-22 12:08:00,35.8,19.5,29.82,North,0,10.4,-999.0,51,-99.99,,,0.00,Acu-Link.com,2013-03-22 16:08:00,
2013-03-22 12:24:00,36.3,19.9,29.81,NNW,337,10.9,-999.0,51,-99.99,,,0.00,Acu-Link.com,2013-03-22 16:24:00,
2013-03-22 12:39:00,34.2,18.4,29.82,NW,315,6.3,-999.0,52,-99.99,,,0.00,Acu-Link.com,2013-03-22 16:39:00,
2013-03-22 12:54:00,34.2,18.9,29.83,SSE,157,3.7,-999.0,53,-99.99,,,0.00,Acu-Link.com,2013-03-22 16:54:00,
2013-03-22 13:09:00,34.2,18.9,29.82,NW,315,5.3,-999.0,53,-99.99,,,0.00,Acu-Link.com,2013-03-22 17:09:00,
2013-03-22 13:24:00,34.9,19.5,29.83,NNW,337,5.8,-999.0,53,-99.99,,,0.00,Acu-Link.com,2013-03-22 17:24:00,
2013-03-22 13:40:00,35.4,20.4,29.82,SE,135,6.3,-999.0,54,-99.99,,,0.00,Acu-Link.com,2013-03-22 17:40:00,
2013-03-22 13:55:00,35.1,20.2,29.82,NNW,337,10.4,-999.0,54,-99.99,,,0.00,Acu-Link.com,2013-03-22 17:55:00,
2013-03-22 14:10:00,35.1,20.2,29.81,NNW,337,8.9,-999.0,54,-99.99,,,0.00,Acu-Link.com,2013-03-22 18:10:00,
2013-03-22 14:25:00,35.6,19.7,29.81,South,180,3.2,-999.0,52,-99.99,,,0.00,Acu-Link.com,2013-03-22 18:25:00,
2013-03-22 14:41:00,35.1,20.2,29.82,North,0,5.3,-999.0,54,-99.99,,,0.00,Acu-Link.com,2013-03-22 18:41:00,
2013-03-22 15:27:00,36.0,20.5,29.82,ENE,67,8.9,-999.0,53,-99.99,,,0.00,Acu-Link.com,2013-03-22 19:27:00,
2013-03-22 15:57:00,37.9,20.9,29.82,NW,315,16.1,-999.0,50,-99.99,,,0.00,Acu-Link.com,2013-03-22 19:57:00,
2013-03-22 16:12:00,35.2,18.9,29.83,NW,315,13.5,-999.0,51,-99.99,,,0.00,Acu-Link.com,2013-03-22 20:12:00,
2013-03-22 16:28:00,35.2,18.9,29.83,NNW,337,9.9,-999.0,51,-99.99,,,0.00,Acu-Link.com,2013-03-22 20:28:00,
2013-03-22 16:43:00,34.5,19.6,29.83,NNE,22,7.3,-999.0,54,-99.99,,,0.00,Acu-Link.com,2013-03-22 20:43:00,
2013-03-22 16:58:00,33.6,18.8,29.83,NW,315,16.6,-999.0,54,-99.99,,,0.00,Acu-Link.com,2013-03-22 20:58:00,
2013-03-22 17:14:00,34.2,18.4,29.83,WNW,292,10.9,-999.0,52,-99.99,,,0.00,Acu-Link.com,2013-03-22 21:14:00,
2013-03-22 17:29:00,35.6,18.8,29.83,NW,315,9.9,-999.0,50,-99.99,,,0.00,Acu-Link.com,2013-03-22 21:29:00,
2013-03-22 17:44:00,36.3,19.9,29.84,NNW,337,5.3,-999.0,51,-99.99,,,0.00,Acu-Link.com,2013-03-22 21:44:00,
2013-03-22 17:59:00,35.4,18.6,29.83,NNW,337,8.3,-999.0,50,-99.99,,,0.00,Acu-Link.com,2013-03-22 21:59:00,
2013-03-22 18:14:00,35.2,18.4,29.84,NNW,337,11.9,-999.0,50,-99.99,,,0.00,Acu-Link.com,2013-03-22 22:14:00,
2013-03-22 18:30:00,34.9,18.6,29.85,NW,315,10.4,-999.0,51,-99.99,,,0.00,Acu-Link.com,2013-03-22 22:30:00,
2013-03-22 18:45:00,34.3,18.5,29.85,NNW,337,9.9,-999.0,52,-99.99,,,0.00,Acu-Link.com,2013-03-22 22:45:00,
2013-03-22 19:00:00,33.6,18.3,29.85,NNW,337,7.3,-999.0,53,-99.99,,,0.00,Acu-Link.com,2013-03-22 23:00:00,
2013-03-22 19:15:00,33.1,18.3,29.87,NNW,337,9.4,-999.0,54,-99.99,,,0.00,Acu-Link.com,2013-03-22 23:15:00,
2013-03-22 19:30:00,33.4,18.1,29.86,NNW,337,11.4,-999.0,53,-99.99,,,0.00,Acu-Link.com,2013-03-22 23:30:00,
2013-03-22 20:31:00,31.5,18.4,29.88,WNW,292,6.8,-999.0,58,-99.99,,,0.00,Acu-Link.com,2013-03-23 00:31:00,
2013-03-22 20:47:00,31.3,18.3,29.89,NW,315,6.3,-999.0,58,-99.99,,,0.00,Acu-Link.com,2013-03-23 00:47:00,
2013-03-22 21:17:00,30.7,17.7,29.89,NW,315,4.7,-999.0,58,-99.99,,,0.00,Acu-Link.com,2013-03-23 01:17:00,
2013-03-22 21:48:00,30.0,17.4,29.90,NNW,337,3.2,-999.0,59,-99.99,,,0.00,Acu-Link.com,2013-03-23 01:48:00,
2013-03-22 22:03:00,29.7,17.5,29.91,NW,315,3.2,-999.0,60,-99.99,,,0.00,Acu-Link.com,2013-03-23 02:03:00,
2013-03-22 22:18:00,30.2,18.0,29.91,NNW,337,8.3,-999.0,60,-99.99,,,0.00,Acu-Link.com,2013-03-23 02:18:00,
2013-03-22 22:33:00,29.3,17.5,29.90,NW,315,5.3,-999.0,61,-99.99,,,0.00,Acu-Link.com,2013-03-23 02:33:00,
2013-03-22 22:49:00,29.8,18.0,29.91,NW,315,7.3,-999.0,61,-99.99,,,0.00,Acu-Link.com,2013-03-23 02:49:00,
2013-03-22 23:04:00,30.4,18.2,29.90,NNW,337,8.9,-999.0,60,-99.99,,,0.00,Acu-Link.com,2013-03-23 03:04:00,
2013-03-22 23:19:00,30.7,18.5,29.90,NNW,337,8.3,-999.0,60,-99.99,,,0.00,Acu-Link.com,2013-03-23 03:19:00,
2013-03-22 23:34:00,30.6,18.4,29.91,NNW,337,9.9,-999.0,60,-99.99,,,0.00,Acu-Link.com,2013-03-23 03:34:00,
2013-03-22 23:50:00,29.3,17.9,29.91,NNW,337,6.3,-999.0,62,-99.99,,,0.00,Acu-Link.com,2013-03-23 03:50:00,